This is the latest recevied weather packets stored in our database for station/object K5GHS-1. If no packets are shown the sender has not sent any weather packets the latest 10 day(s).
| Time | Temp. | Humidity | Pressure | Rain* | Wind** | Luminosity | Snow |
|---|---|---|---|---|---|---|---|
| 1777744975 | 25° C | 34% | 1019.9 hPa | 0 mm | - | 733 W/m² | - |
| 1777744670 | 25° C | 34% | 1019.9 hPa | 0 mm | - | 726 W/m² | - |
| 1777744364 | 24.44° C | 32% | 1019.9 hPa | 0 mm | - | 722 W/m² | - |
| 1777744062 | 25° C | 32% | 1019.9 hPa | 0 mm | - | 730 W/m² | - |
| 1777743759 | 24.44° C | 34% | 1020 hPa | 0 mm | - | 737 W/m² | - |
| 1777743456 | 24.44° C | 34% | 1020.1 hPa | 0 mm | - | 730 W/m² | - |
| 1777743153 | 23.89° C | 33% | 1020.2 hPa | 0 mm | - | 710 W/m² | - |
| 1777742851 | 23.89° C | 33% | 1020.2 hPa | 0 mm | - | 704 W/m² | - |
| 1777742547 | 23.33° C | 33% | 1020.3 hPa | 0 mm | - | 727 W/m² | - |
| 1777742243 | 23.33° C | 34% | 1020.2 hPa | 0 mm | - | 734 W/m² | - |
| 1777741941 | 23.33° C | 36% | 1020.5 hPa | 0 mm | - | 738 W/m² | - |
| 1777741637 | 22.78° C | 31% | 1020.3 hPa | 0 mm | - | 758 W/m² | - |
| 1777741334 | 23.89° C | 33% | 1020.5 hPa | 0 mm | - | 783 W/m² | - |
| 1777741030 | 24.44° C | 31% | 1020.3 hPa | 0 mm | - | 784 W/m² | - |
| 1777740728 | 24.44° C | 35% | 1020.5 hPa | 0 mm | - | 787 W/m² | - |
| 1777740423 | 23.89° C | 37% | 1020.6 hPa | 0 mm | - | 789 W/m² | - |
| 1777740121 | 23.89° C | 37% | 1020.4 hPa | 0 mm | - | 751 W/m² | - |
| 1777739816 | 23.33° C | 36% | 1020.4 hPa | 0 mm | - | 699 W/m² | - |
| 1777739514 | 23.89° C | 33% | 1020.4 hPa | 0 mm | - | 666 W/m² | - |
| 1777739210 | 23.89° C | 32% | 1020.4 hPa | 0 mm | - | 740 W/m² | - |
| 1777738907 | 23.89° C | 36% | 1020.4 hPa | 0 mm | - | 740 W/m² | - |
| 1777738605 | 23.33° C | 34% | 1020.5 hPa | 0 mm | - | 720 W/m² | - |
| 1777738301 | 23.33° C | 37% | 1020.3 hPa | 0 mm | - | 699 W/m² | - |
| 1777737999 | 23.33° C | 39% | 1020.5 hPa | 0 mm | - | 730 W/m² | - |
| 1777737698 | 22.78° C | 37% | 1020.6 hPa | 0 mm | - | 754 W/m² | - |
* Rain latest hour (hover to see other rain measurements)
** Current wind speed in m/s (hover to see current wind gust speed)